This is the latest recevied weather packets stored in our database for station/object ZS2JO. If no packets are shown the sender has not sent any weather packets the latest 10 day(s).
| Time | Temp. | Humidity | Pressure | Rain* | Wind** | Luminosity | Snow |
|---|---|---|---|---|---|---|---|
| 1778232075 | 16.11° C | 82% | 1021.9 hPa | 0 mm | - | 278 W/m² | - |
| 1778231771 | 16.11° C | 82% | 1022.1 hPa | 0 mm | - | 321 W/m² | - |
| 1778231468 | 16.11° C | 84% | 1022 hPa | 0 mm | - | 419 W/m² | - |
| 1778231167 | 15.56° C | 84% | 1022 hPa | 0 mm | - | 237 W/m² | - |
| 1778230863 | 16.11° C | 83% | 1021.8 hPa | 0 mm | - | 195 W/m² | - |
| 1778230559 | 16.11° C | 82% | 1021.9 hPa | 0 mm | - | 284 W/m² | - |
| 1778230257 | 16.11° C | 85% | 1021.9 hPa | 0 mm | - | 324 W/m² | - |
| 1778229953 | 16.11° C | 86% | 1021.9 hPa | 0 mm | - | 562 W/m² | - |
| 1778229650 | 16.11° C | 86% | 1022.1 hPa | 0 mm | - | 329 W/m² | - |
| 1778229348 | 15.56° C | 86% | 1022 hPa | 0 mm | - | 314 W/m² | - |
| 1778229044 | 15.56° C | 87% | 1022.1 hPa | 0 mm | - | 222 W/m² | - |
| 1778228740 | 16.11° C | 88% | 1022.1 hPa | 0 mm | - | 324 W/m² | - |
| 1778228438 | 15.56° C | 88% | 1022 hPa | 0 mm | - | 502 W/m² | - |
| 1778228135 | 15° C | 90% | 1022 hPa | 0 mm | - | 392 W/m² | - |
| 1778227831 | 15° C | 90% | 1022.3 hPa | 0 mm | - | 207 W/m² | - |
| 1778227529 | 15° C | 90% | 1022.1 hPa | 0 mm | - | 201 W/m² | - |
| 1778227226 | 15° C | 90% | 1021.9 hPa | 0 mm | - | 230 W/m² | - |
| 1778226923 | 15° C | 91% | 1021.9 hPa | 0 mm | - | 250 W/m² | - |
| 1778226620 | 15° C | 91% | 1021.9 hPa | 0 mm | - | 253 W/m² | - |
| 1778226318 | 15° C | 91% | 1021.9 hPa | 0 mm | - | 235 W/m² | - |
| 1778226014 | 15° C | 91% | 1022 hPa | 0 mm | - | 212 W/m² | - |
| 1778225712 | 15° C | 91% | 1021.9 hPa | 0 mm | - | 219 W/m² | - |
| 1778225409 | 15° C | 91% | 1021.9 hPa | 0 mm | - | 249 W/m² | - |
| 1778225105 | 15° C | 91% | 1021.9 hPa | 0 mm | - | 355 W/m² | - |
| 1778224802 | 14.44° C | 93% | 1021.8 hPa | 0 mm | - | 183 W/m² | - |
* Rain latest hour (hover to see other rain measurements)
** Current wind speed in m/s (hover to see current wind gust speed)